QPF
0.07 0.10 0.08 0.04 0.06 0.08 0.07 0.05 0.04 0.03 0.03 0.04 0.04 0.04 0.04 0.07 0.08 0.06 0.05 0.04 0.03 0.02 0.01 0.02 0.03 0.03 0.03 0.03 0.05 0.05 0.06 0.09 0.09 0.11 0.17 0.16 0.18 0.18 0.16 0.13 0.14 0.10 0.06 0.03
0.07 0.07 0.04 0.02 0.02 0.05 0.06 0.05 0.03 0.03 0.03 0.03 0.03 0.02 0.02 0.04 0.06 0.05 0.04 0.04 0.03 0.02 0.02 0.02 0.03 0.04 0.04 0.04 0.05 0.05 0.06 0.07 0.07 0.08 0.13 0.16 0.14 0.14 0.16 0.15 0.13 0.13 0.09 0.06
0.04 0.04 0.03 0.03 0.03 0.03 0.04 0.05 0.04 0.04 0.04 0.04 0.03 0.02 0.01 0.02 0.02 0.03 0.03 0.03 0.03 0.03 0.03 0.02 0.02 0.03 0.06 0.06 0.05 0.05 0.06 0.06 0.07 0.07 0.11 0.16 0.18 0.16 0.15 0.17 0.13 0.10 0.08 0.07
0.03 0.03 0.04 0.04 0.04 0.03 0.03 0.03 0.02 0.03 0.04 0.06 0.04 0.05 0.02 0.01 0.01 0.02 0.03 0.03 0.03 0.03 0.02 0.02 0.01 0.02 0.05 0.06 0.07 0.06 0.08 0.08 0.07 0.07 0.11 0.13 0.15 0.16 0.13 0.13 0.13 0.09 0.06 0.04
0.03 0.03 0.04 0.03 0.03 0.03 0.03 0.02 0.02 0.02 0.03 0.04 0.03 0.04 0.02 0.01 0.02 0.03 0.03 0.03 0.03 0.02 0.02 0.01 0.01 0.01 0.03 0.06 0.07 0.07 0.08 0.09 0.07 0.07 0.10 0.11 0.11 0.12 0.13 0.13 0.12 0.10 0.06 0.04
0.03 0.03 0.04 0.02 0.02 0.03 0.03 0.03 0.02 0.02 0.04 0.06 0.03 0.04 0.03 0.04 0.04 0.02 0.02 0.02 0.03 0.02 0.01 0.01 0.01 0.01 0.03 0.05 0.06 0.07 0.08 0.10 0.10 0.08 0.10 0.10 0.10 0.09 0.11 0.13 0.15 0.12 0.08 0.04
0.02 0.03 0.04 0.03 0.03 0.02 0.02 0.04 0.06 0.05 0.05 0.05 0.02 0.02 0.04 0.04 0.02 0.01 0.01 0.01 0.02 0.02 0.01 0.01 0.01 0.01 0.02 0.04 0.05 0.06 0.07 0.10 0.12 0.09 0.09 0.10 0.09 0.09 0.09 0.10 0.13 0.14 0.11 0.07
0.03 0.04 0.05 0.03 0.03 0.03 0.03 0.04 0.06 0.05 0.04 0.02 0.01 0.02 0.02 0.01 0.01 0.01 0.01 0.01 0.01 0.01 0.01 0.02 0.01 0.01 0.02 0.04 0.06 0.07 0.07 0.09 0.11 0.10 0.09 0.10 0.09 0.09 0.08 0.08 0.09 0.11 0.09 0.08
0.03 0.04 0.04 0.02 0.01 0.02 0.03 0.02 0.02 0.04 0.02 0.02 0.01 0.01 0.01 0.01 0.01 0.01 0.02 0.03 0.02 0.02 0.01 0.02 0.02 0.02 0.02 0.03 0.05 0.07 0.08 0.10 0.12 0.09 0.09 0.10 0.10 0.10 0.09 0.08 0.07 0.08 0.06 0.05
0.03 0.04 0.02 0.01 0.01 0.01 0.01 0.02 0.02 0.04 0.04 0.03 0.02 0.02 0.02 0.01 0.01 0.01 0.01 0.03 0.02 0.03 0.02 0.02 0.02 0.02 0.03 0.04 0.04 0.04 0.08 0.10 0.12 0.10 0.09 0.11 0.11 0.11 0.10 0.10 0.08 0.07 0.05 0.03
0.03 0.05 0.03 0.02 0.02 0.01 0.02 0.02 0.03 0.03 0.03 0.03 0.03 0.02 0.01 0.01 0.01 0.01 0.01 0.01 0.01 0.01 0.01 0.02 0.02 0.02 0.03 0.05 0.04 0.04 0.06 0.10 0.12 0.10 0.09 0.11 0.13 0.12 0.12 0.11 0.10 0.08 0.05 0.02
0.02 0.04 0.03 0.01 0.01 0.01 0.01 0.02 0.02 0.04 0.03 0.02 0.02 0.02 0.01 0.00 0.01 0.01 0.01 0.01 0.01 0.01 0.01 0.01 0.02 0.02 0.03 0.05 0.05 0.04 0.04 0.08 0.12 0.12 0.10 0.12 0.15 0.12 0.12 0.11 0.11 0.10 0.07 0.04
0.03 0.05 0.04 0.02 0.01 0.01 0.01 0.01 0.01 0.02 0.04 0.03 0.03 0.02 0.01 0.00 0.00 0.00 0.00 0.01 0.00 0.00 0.01 0.01 0.01 0.01 0.02 0.04 0.05 0.04 0.04 0.06 0.10 0.13 0.13 0.14 0.15 0.13 0.10 0.10 0.10 0.10 0.08 0.05
0.05 0.06 0.03 0.02 0.01 0.02 0.02 0.02 0.01 0.02 0.03 0.02 0.02 0.02 0.02 0.01 0.00 0.00 0.00 0.00 0.00 0.00 0.00 0.01 0.01 0.01 0.02 0.03 0.04 0.05 0.03 0.05 0.09 0.14 0.16 0.17 0.16 0.13 0.10 0.09 0.08 0.09 0.08 0.07
0.05 0.05 0.01 0.01 0.00 0.01 0.02 0.02 0.01 0.02 0.02 0.02 0.02 0.02 0.03 0.01 0.00 0.00 0.00 0.00 0.00 0.00 0.00 0.01 0.01 0.01 0.02 0.03 0.03 0.04 0.04 0.04 0.06 0.12 0.16 0.18 0.19 0.15 0.12 0.09 0.08 0.07 0.07 0.08
0.05 0.05 0.02 0.01 0.00 0.01 0.01 0.01 0.01 0.01 0.01 0.01 0.01 0.02 0.02 0.01 0.00 0.00 0.00 0.00 0.00 0.00 0.00 0.00 0.01 0.01 0.01 0.02 0.03 0.03 0.04 0.04 0.05 0.10 0.12 0.14 0.20 0.21 0.17 0.12 0.08 0.07 0.07 0.08
0.03 0.04 0.04 0.02 0.00 0.01 0.01 0.01 0.01 0.01 0.01 0.01 0.01 0.01 0.01 0.00 0.00 0.00 0.00 0.00 0.00 0.00 0.00 0.00 0.00 0.01 0.01 0.01 0.02 0.03 0.03 0.03 0.04 0.07 0.09 0.10 0.15 0.20 0.20 0.15 0.09 0.06 0.06 0.08
0.03 0.04 0.06 0.03 0.02 0.02 0.01 0.01 0.01 0.01 0.01 0.00 0.01 0.01 0.00 0.00 0.00 0.00 0.00 0.00 0.00 0.00 0.00 0.00 0.00 0.00 0.00 0.01 0.01 0.03 0.03 0.03 0.03 0.04 0.07 0.08 0.11 0.15 0.16 0.16 0.12 0.06 0.05 0.07
0.01 0.04 0.07 0.05 0.03 0.01 0.00 0.00 0.01 0.01 0.01 0.01 0.01 0.01 0.00 0.00 0.00 0.00 0.00 0.00 0.00 0.00 0.00 0.00 0.00 0.00 0.00 0.00 0.01 0.02 0.03 0.03 0.03 0.03 0.04 0.05 0.09 0.12 0.13 0.12 0.12 0.08 0.05 0.05
0.01 0.04 0.08 0.06 0.04 0.01 0.00 0.01 0.00 0.01 0.01 0.00 0.01 0.01 0.00 0.01 0.01 0.01 0.01 0.00 0.00 0.00 0.00 0.00 0.00 0.00 0.00 0.00 0.00 0.01 0.02 0.02 0.03 0.02 0.02 0.03 0.05 0.09 0.11 0.09 0.08 0.07 0.05 0.05
0.02 0.05 0.06 0.04 0.04 0.01 0.01 0.01 0.00 0.01 0.01 0.01 0.01 0.01 0.00 0.01 0.01 0.01 0.01 0.00 0.00 0.00 0.00 0.00 0.00 0.00 0.00 0.00 0.00 0.00 0.01 0.01 0.02 0.02 0.02 0.02 0.02 0.05 0.08 0.07 0.06 0.06 0.04 0.05
0.01 0.02 0.02 0.03 0.05 0.02 0.01 0.01 0.01 0.01 0.01 0.01 0.00 0.00 0.00 0.00 0.00 0.01 0.01 0.01 0.00 0.00 0.00 0.00 0.00 0.00 0.00 0.00 0.00 0.00 0.00 0.01 0.02 0.02 0.02 0.02 0.02 0.03 0.05 0.06 0.05 0.05 0.04 0.04
0.01 0.01 0.01 0.02 0.01 0.01 0.01 0.01 0.01 0.01 0.00 0.00 0.00 0.00 0.00 0.00 0.00 0.01 0.01 0.01 0.01 0.01 0.00 0.00 0.00 0.01 0.00 0.00 0.00 0.00 0.00 0.01 0.01 0.02 0.02 0.02 0.02 0.02 0.03 0.05 0.05 0.04 0.04 0.05
0.00 0.00 0.01 0.01 0.00 0.00 0.01 0.01 0.01 0.01 0.00 0.00 0.00 0.00 0.00 0.00 0.00 0.01 0.01 0.01 0.01 0.01 0.00 0.00 0.01 0.01 0.01 0.01 0.01 0.01 0.00 0.01 0.01 0.01 0.02 0.02 0.03 0.03 0.03 0.03 0.05 0.05 0.04 0.04
0.00 0.00 0.01 0.00 0.00 0.00 0.00 0.00 0.01 0.01 0.00 0.00 0.00 0.00 0.00 0.00 0.01 0.00 0.01 0.01 0.01 0.01 0.00 0.00 0.01 0.01 0.01 0.01 0.01 0.01 0.01 0.01 0.01 0.01 0.01 0.02 0.03 0.04 0.03 0.03 0.03 0.05 0.04 0.04
0.00 0.00 0.01 0.01 0.00 0.00 0.00 0.00 0.01 0.01 0.01 0.00 0.00 0.00 0.00 0.00 0.01 0.01 0.01 0.01 0.01 0.01 0.00 0.00 0.01 0.01 0.01 0.01 0.01 0.01 0.01 0.02 0.02 0.02 0.02 0.02 0.03 0.05 0.04 0.03 0.03 0.04 0.04 0.04
MSLP
1014.70 1014.51 1014.31 1014.12 1013.94 1013.77 1013.60 1013.39 1013.10 1012.68 1012.13 1011.44 1010.64 1009.77 1008.90 1008.09 1007.38 1006.80 1006.34 1005.95 1005.59 1005.19 1004.69 1004.06 1003.30 1002.45 1001.59 1000.81 1000.18 999.78 999.67 999.83 1000.25 1000.87 1001.62 1002.42 1003.22 1003.99 1004.72 1005.42 1006.12 1006.84 1007.59 1008.39
1014.53 1014.29 1014.06 1013.88 1013.76 1013.67 1013.60 1013.47 1013.25 1012.87 1012.30 1011.56 1010.68 1009.73 1008.78 1007.92 1007.22 1006.68 1006.32 1006.06 1005.84 1005.57 1005.17 1004.60 1003.85 1002.97 1002.03 1001.13 1000.38 999.87 999.64 999.72 1000.07 1000.63 1001.34 1002.10 1002.87 1003.60 1004.29 1004.95 1005.61 1006.30 1007.04 1007.82
1014.34 1014.04 1013.80 1013.66 1013.61 1013.64 1013.68 1013.68 1013.53 1013.18 1012.59 1011.78 1010.80 1009.72 1008.66 1007.73 1007.00 1006.51 1006.23 1006.12 1006.07 1005.98 1005.73 1005.27 1004.59 1003.70 1002.71 1001.71 1000.82 1000.15 999.78 999.72 999.95 1000.41 1001.04 1001.75 1002.48 1003.18 1003.84 1004.48 1005.13 1005.80 1006.53 1007.30
1014.11 1013.78 1013.56 1013.48 1013.54 1013.71 1013.90 1014.02 1013.96 1013.65 1013.03 1012.13 1011.00 1009.77 1008.56 1007.51 1006.72 1006.23 1006.04 1006.06 1006.19 1006.30 1006.24 1005.94 1005.36 1004.52 1003.50 1002.42 1001.40 1000.57 1000.02 999.78 999.85 1000.18 1000.70 1001.33 1002.01 1002.69 1003.34 1003.99 1004.64 1005.32 1006.05 1006.82
1013.85 1013.52 1013.34 1013.35 1013.55 1013.88 1014.24 1014.51 1014.55 1014.26 1013.61 1012.60 1011.32 1009.90 1008.51 1007.30 1006.41 1005.88 1005.73 1005.86 1006.16 1006.46 1006.61 1006.49 1006.05 1005.30 1004.29 1003.16 1002.04 1001.05 1000.31 999.88 999.76 999.93 1000.32 1000.85 1001.47 1002.12 1002.77 1003.44 1004.11 1004.82 1005.57 1006.36
1013.54 1013.24 1013.14 1013.28 1013.64 1014.15 1014.68 1015.10 1015.23 1014.99 1014.30 1013.19 1011.75 1010.14 1008.55 1007.16 1006.13 1005.53 1005.36 1005.56 1005.98 1006.44 1006.79 1006.85 1006.57 1005.93 1004.98 1003.84 1002.64 1001.52 1000.62 1000.00 999.69 999.67 999.90 1000.32 1000.86 1001.48 1002.13 1002.81 1003.53 1004.27 1005.06 1005.87
1013.23 1012.99 1012.99 1013.26 1013.78 1014.46 1015.17 1015.72 1015.96 1015.75 1015.04 1013.85 1012.28 1010.50 1008.72 1007.15 1005.96 1005.25 1005.03 1005.23 1005.71 1006.29 1006.78 1007.01 1006.89 1006.37 1005.51 1004.40 1003.17 1001.96 1000.92 1000.13 999.64 999.44 999.51 999.79 1000.23 1000.79 1001.42 1002.11 1002.85 1003.64 1004.46 1005.30
1012.96 1012.79 1012.89 1013.28 1013.94 1014.77 1015.61 1016.29 1016.61 1016.45 1015.74 1014.51 1012.86 1010.96 1009.04 1007.31 1005.97 1005.13 1004.82 1004.96 1005.44 1006.06 1006.64 1006.99 1006.99 1006.60 1005.85 1004.80 1003.59 1002.35 1001.22 1000.30 999.65 999.28 999.17 999.31 999.63 1000.10 1000.68 1001.36 1002.10 1002.91 1003.76 1004.63
1012.78 1012.68 1012.86 1013.35 1014.10 1015.02 1015.95 1016.70 1017.08 1016.97 1016.29 1015.07 1013.40 1011.46 1009.46 1007.64 1006.19 1005.23 1004.79 1004.84 1005.24 1005.84 1006.43 1006.83 1006.93 1006.65 1006.01 1005.06 1003.91 1002.69 1001.53 1000.53 999.75 999.23 998.96 998.93 999.11 999.46 999.96 1000.57 1001.29 1002.09 1002.95 1003.84
1012.73 1012.68 1012.91 1013.44 1014.22 1015.15 1016.09 1016.86 1017.27 1017.19 1016.57 1015.40 1013.79 1011.89 1009.91 1008.07 1006.57 1005.51 1004.96 1004.88 1005.17 1005.67 1006.20 1006.60 1006.74 1006.54 1006.01 1005.18 1004.13 1002.99 1001.85 1000.82 999.96 999.32 998.91 998.72 998.73 998.93 999.30 999.81 1000.46 1001.22 1002.06 1002.95
1012.80 1012.79 1013.02 1013.52 1014.25 1015.12 1015.98 1016.69 1017.07 1017.01 1016.44 1015.38 1013.89 1012.12 1010.26 1008.50 1007.02 1005.93 1005.29 1005.08 1005.21 1005.56 1005.99 1006.32 1006.45 1006.31 1005.88 1005.17 1004.27 1003.24 1002.18 1001.18 1000.29 999.57 999.03 998.68 998.51 998.54 998.75 999.12 999.66 1000.33 1001.12 1001.97
1012.95 1012.95 1013.15 1013.57 1014.17 1014.88 1015.58 1016.15 1016.45 1016.37 1015.86 1014.92 1013.61 1012.05 1010.39 1008.79 1007.41 1006.35 1005.66 1005.34 1005.32 1005.51 1005.79 1006.02 1006.12 1006.00 1005.65 1005.08 1004.32 1003.44 1002.50 1001.57 1000.70 999.93 999.29 998.80 998.47 998.31 998.33 998.54 998.93 999.49 1000.18 1000.99
1013.10 1013.10 1013.23 1013.51 1013.92 1014.41 1014.88 1015.25 1015.40 1015.26 1014.79 1013.98 1012.88 1011.58 1010.18 1008.82 1007.62 1006.65 1005.97 1005.58 1005.43 1005.46 1005.59 1005.70 1005.73 1005.62 1005.34 1004.90 1004.30 1003.58 1002.78 1001.96 1001.14 1000.36 999.65 999.04 998.55 998.22 998.05 998.08 998.30 998.72 999.31 1000.03
1013.15 1013.14 1013.19 1013.31 1013.49 1013.70 1013.89 1014.01 1013.97 1013.74 1013.29 1012.60 1011.72 1010.69 1009.60 1008.52 1007.55 1006.74 1006.12 1005.71 1005.47 1005.37 1005.36 1005.36 1005.32 1005.20 1004.98 1004.64 1004.19 1003.64 1003.00 1002.30 1001.55 1000.79 1000.05 999.35 998.72 998.22 997.88 997.73 997.79 998.06 998.52 999.14
1013.02 1013.00 1012.96 1012.91 1012.85 1012.77 1012.66 1012.50 1012.26 1011.91 1011.44 1010.86 1010.18 1009.43 1008.65 1007.88 1007.17 1006.55 1006.05 1005.67 1005.39 1005.21 1005.08 1004.99 1004.89 1004.76 1004.58 1004.34 1004.02 1003.62 1003.12 1002.55 1001.89 1001.17 1000.41 999.64 998.92 998.29 997.79 997.48 997.38 997.50 997.83 998.35
1012.64 1012.61 1012.49 1012.28 1011.99 1011.65 1011.25 1010.82 1010.36 1009.89 1009.40 1008.90 1008.39 1007.89 1007.40 1006.94 1006.50 1006.11 1005.75 1005.44 1005.18 1004.95 1004.76 1004.60 1004.45 1004.31 1004.17 1004.00 1003.79 1003.51 1003.14 1002.68 1002.11 1001.43 1000.68 999.88 999.09 998.35 997.73 997.28 997.04 997.02 997.23 997.65
1011.99 1011.95 1011.76 1011.42 1010.95 1010.38 1009.74 1009.07 1008.43 1007.83 1007.31 1006.87 1006.51 1006.22 1005.99 1005.80 1005.62 1005.45 1005.26 1005.06 1004.84 1004.62 1004.40 1004.20 1004.03 1003.88 1003.76 1003.65 1003.51 1003.33 1003.06 1002.68 1002.19 1001.56 1000.83 1000.02 999.18 998.37 997.66 997.11 996.75 996.61 996.71 997.02
1011.08 1011.03 1010.79 1010.36 1009.75 1009.01 1008.19 1007.36 1006.57 1005.89 1005.34 1004.94 1004.69 1004.57 1004.56 1004.59 1004.64 1004.67 1004.65 1004.56 1004.42 1004.24 1004.03 1003.82 1003.64 1003.49 1003.38 1003.29 1003.20 1003.08 1002.88 1002.57 1002.13 1001.55 1000.84 1000.03 999.17 998.32 997.55 996.91 996.46 996.22 996.22 996.43
1009.95 1009.88 1009.60 1009.11 1008.43 1007.60 1006.68 1005.75 1004.88 1004.15 1003.59 1003.23 1003.07 1003.08 1003.22 1003.43 1003.66 1003.86 1003.98 1004.01 1003.96 1003.83 1003.65 1003.45 1003.27 1003.12 1003.02 1002.94 1002.88 1002.78 1002.62 1002.35 1001.95 1001.41 1000.72 999.93 999.06 998.19 997.37 996.68 996.15 995.82 995.72 995.85
1008.64 1008.54 1008.24 1007.73 1007.02 1006.16 1005.22 1004.27 1003.39 1002.66 1002.13 1001.81 1001.72 1001.82 1002.07 1002.41 1002.76 1003.08 1003.32 1003.45 1003.48 1003.40 1003.26 1003.09 1002.92 1002.77 1002.66 1002.59 1002.52 1002.44 1002.30 1002.05 1001.68 1001.16 1000.50 999.72 998.86 997.98 997.13 996.39 995.79 995.39 995.21 995.25
1007.18 1007.05 1006.73 1006.23 1005.54 1004.72 1003.82 1002.92 1002.10 1001.43 1000.94 1000.69 1000.65 1000.82 1001.14 1001.55 1001.98 1002.38 1002.70 1002.90 1002.98 1002.96 1002.86 1002.71 1002.55 1002.40 1002.29 1002.21 1002.14 1002.05 1001.91 1001.68 1001.32 1000.83 1000.19 999.43 998.59 997.70 996.83 996.04 995.39 994.92 994.66 994.62
1005.60 1005.42 1005.09 1004.61 1003.99 1003.26 1002.46 1001.68 1000.96 1000.39 999.99 999.81 999.84 1000.05 1000.41 1000.85 1001.32 1001.76 1002.11 1002.36 1002.48 1002.49 1002.41 1002.28 1002.13 1001.99 1001.87 1001.78 1001.70 1001.61 1001.47 1001.25 1000.91 1000.44 999.82 999.09 998.25 997.36 996.47 995.65 994.94 994.40 994.07 993.96
1003.90 1003.67 1003.34 1002.90 1002.37 1001.76 1001.11 1000.48 999.93 999.49 999.21 999.11 999.20 999.45 999.83 1000.29 1000.76 1001.20 1001.56 1001.81 1001.95 1001.98 1001.92 1001.80 1001.66 1001.52 1001.39 1001.30 1001.21 1001.12 1000.98 1000.77 1000.45 1000.00 999.41 998.69 997.87 996.97 996.07 995.21 994.45 993.86 993.46 993.30
1002.09 1001.81 1001.49 1001.11 1000.69 1000.23 999.76 999.32 998.94 998.67 998.52 998.53 998.68 998.97 999.36 999.80 1000.26 1000.67 1001.02 1001.26 1001.39 1001.43 1001.37 1001.26 1001.12 1000.98 1000.86 1000.76 1000.68 1000.59 1000.47 1000.27 999.97 999.54 998.98 998.27 997.46 996.56 995.63 994.74 993.95 993.30 992.86 992.65
1000.21 999.89 999.59 999.29 998.99 998.69 998.41 998.17 997.99 997.89 997.89 998.01 998.23 998.55 998.94 999.37 999.79 1000.18 1000.49 1000.70 1000.82 1000.84 1000.79 1000.68 1000.55 1000.42 1000.30 1000.21 1000.14 1000.06 999.94 999.76 999.48 999.07 998.53 997.84 997.02 996.12 995.18 994.27 993.44 992.77 992.29 992.07
998.32 998.00 997.73 997.51 997.34 997.22 997.13 997.09 997.10 997.17 997.32 997.54 997.83 998.18 998.57 998.98 999.37 999.71 999.98 1000.16 1000.26 1000.27 1000.21 1000.11 999.99 999.87 999.76 999.68 999.61 999.54 999.44 999.27 999.01 998.61 998.07 997.39 996.58 995.68 994.73 993.81 992.97 992.28 991.81 991.59
Thickness
5534 5525 5524 5529 5528 5526 5525 5526 5530 5540 5547 5546 5546 5552 5563 5570 5571 5574 5578 5582 5589 5597 5608 5615 5620 5623 5626 5629 5634 5639 5643 5647 5650 5652 5657 5660 5663 5667 5670 5674 5677 5678 5677 5677
5528 5525 5532 5534 5530 5525 5521 5521 5528 5538 5543 5540 5541 5550 5561 5566 5568 5571 5574 5577 5582 5589 5598 5607 5611 5614 5617 5622 5626 5631 5636 5641 5644 5647 5652 5656 5659 5662 5665 5668 5671 5673 5674 5673
5522 5530 5533 5529 5524 5521 5522 5519 5523 5526 5534 5535 5534 5543 5558 5565 5568 5571 5573 5575 5579 5584 5589 5597 5602 5605 5609 5613 5619 5625 5631 5635 5638 5642 5645 5649 5650 5654 5657 5661 5664 5668 5670 5670
5525 5530 5527 5522 5520 5517 5514 5523 5522 5521 5514 5518 5526 5520 5549 5559 5563 5566 5566 5568 5571 5577 5582 5587 5593 5597 5602 5607 5612 5618 5624 5629 5633 5637 5639 5642 5646 5650 5655 5658 5659 5662 5665 5666
5519 5524 5519 5517 5518 5515 5514 5520 5517 5516 5512 5512 5523 5516 5539 5556 5555 5558 5559 5561 5564 5570 5575 5579 5584 5590 5596 5601 5605 5611 5617 5622 5628 5632 5636 5638 5643 5646 5650 5653 5653 5657 5660 5661
5519 5523 5518 5517 5518 5516 5514 5510 5511 5514 5509 5501 5523 5520 5530 5544 5547 5550 5553 5554 5558 5564 5569 5573 5578 5582 5587 5593 5599 5604 5610 5616 5621 5627 5631 5635 5639 5643 5646 5648 5650 5653 5655 5657
5513 5521 5519 5514 5507 5510 5504 5489 5486 5490 5493 5504 5533 5528 5531 5545 5547 5547 5548 5549 5551 5556 5561 5566 5569 5574 5579 5585 5592 5598 5604 5609 5615 5621 5627 5632 5637 5641 5645 5647 5649 5650 5652 5654
5492 5505 5515 5510 5502 5496 5494 5487 5475 5474 5486 5505 5521 5519 5532 5545 5546 5546 5546 5545 5547 5549 5553 5558 5562 5567 5573 5579 5585 5591 5597 5603 5609 5615 5621 5627 5633 5637 5642 5645 5647 5649 5652 5653
5482 5492 5511 5509 5505 5497 5488 5486 5490 5479 5482 5484 5504 5521 5533 5541 5539 5539 5539 5538 5538 5541 5546 5551 5555 5560 5567 5572 5579 5584 5591 5598 5603 5608 5614 5621 5628 5633 5638 5640 5643 5646 5649 5650
5477 5473 5493 5502 5500 5496 5490 5485 5477 5469 5466 5476 5499 5513 5518 5523 5524 5528 5528 5527 5530 5535 5539 5543 5549 5554 5559 5565 5571 5578 5585 5591 5597 5602 5608 5616 5624 5629 5633 5636 5639 5642 5646 5648
5473 5460 5476 5487 5485 5483 5481 5478 5472 5469 5471 5468 5478 5498 5521 5518 5518 5518 5518 5520 5523 5526 5530 5534 5540 5546 5552 5558 5563 5570 5576 5583 5590 5596 5603 5609 5617 5624 5629 5633 5636 5638 5641 5643
5467 5457 5458 5477 5491 5489 5482 5476 5469 5455 5458 5468 5467 5484 5514 5512 5512 5511 5510 5513 5516 5519 5523 5527 5532 5537 5543 5549 5555 5562 5569 5576 5582 5590 5597 5605 5611 5618 5623 5628 5632 5634 5636 5639
5459 5448 5445 5468 5475 5474 5470 5471 5465 5457 5453 5455 5459 5477 5505 5502 5501 5502 5501 5503 5507 5510 5514 5518 5523 5528 5534 5540 5546 5553 5561 5568 5575 5582 5590 5597 5603 5610 5616 5622 5626 5629 5632 5634
5458 5445 5443 5451 5462 5455 5451 5456 5457 5448 5444 5450 5461 5474 5487 5487 5487 5489 5492 5494 5498 5501 5504 5507 5512 5518 5524 5530 5537 5544 5552 5559 5566 5573 5582 5590 5597 5603 5609 5615 5619 5623 5627 5629
5447 5441 5444 5452 5459 5456 5453 5454 5454 5449 5449 5447 5463 5470 5478 5477 5477 5480 5483 5486 5490 5493 5496 5499 5502 5507 5514 5519 5526 5533 5542 5549 5556 5564 5573 5581 5589 5596 5603 5608 5613 5617 5620 5623
5438 5434 5438 5445 5456 5453 5455 5461 5459 5456 5457 5455 5458 5464 5474 5472 5473 5473 5475 5478 5480 5482 5486 5489 5494 5498 5503 5508 5515 5522 5530 5539 5548 5556 5563 5571 5579 5587 5593 5598 5605 5609 5612 5615
5428 5422 5425 5433 5447 5445 5447 5464 5462 5460 5462 5458 5454 5462 5467 5467 5468 5466 5467 5470 5471 5473 5476 5479 5483 5488 5493 5498 5504 5511 5519 5528 5536 5544 5552 5561 5568 5576 5582 5589 5595 5600 5604 5607
5424 5418 5417 5421 5425 5417 5456 5473 5470 5464 5463 5461 5460 5461 5461 5460 5461 5462 5462 5460 5460 5463 5466 5469 5472 5477 5483 5488 5494 5500 5508 5516 5523 5532 5541 5550 5558 5565 5572 5580 5586 5592 5596 5600
5429 5416 5412 5412 5412 5428 5457 5465 5460 5451 5449 5455 5453 5454 5454 5454 5453 5452 5455 5455 5453 5454 5457 5459 5463 5468 5473 5478 5484 5490 5497 5504 5513 5521 5529 5538 5547 5555 5562 5570 5577 5583 5588 5592
5425 5414 5405 5406 5406 5415 5449 5456 5455 5445 5431 5448 5447 5443 5442 5442 5432 5437 5444 5446 5446 5447 5448 5450 5454 5458 5463 5468 5474 5479 5486 5494 5502 5509 5518 5527 5536 5544 5552 5560 5567 5574 5580 5584
5406 5402 5401 5400 5401 5418 5445 5446 5440 5419 5422 5439 5439 5436 5433 5429 5427 5431 5435 5436 5437 5438 5439 5441 5444 5447 5452 5457 5463 5468 5475 5482 5491 5500 5508 5517 5526 5534 5542 5550 5558 5565 5570 5575
5406 5400 5399 5398 5395 5413 5439 5433 5423 5423 5431 5432 5429 5427 5424 5424 5426 5426 5427 5427 5427 5428 5430 5432 5433 5436 5441 5447 5452 5458 5464 5472 5481 5490 5499 5507 5515 5524 5533 5540 5548 5554 5560 5564
5414 5413 5411 5410 5420 5433 5433 5428 5426 5425 5422 5421 5418 5418 5417 5416 5416 5417 5418 5418 5418 5419 5420 5422 5423 5427 5431 5436 5442 5448 5454 5461 5470 5479 5488 5496 5505 5513 5522 5530 5537 5543 5549 5554
5418 5420 5412 5411 5421 5426 5425 5424 5422 5419 5416 5415 5412 5410 5409 5407 5407 5408 5408 5409 5409 5410 5411 5413 5415 5418 5421 5426 5431 5437 5444 5450 5459 5467 5476 5485 5494 5502 5511 5519 5527 5533 5539 5543
5415 5410 5403 5404 5414 5416 5418 5416 5414 5412 5410 5407 5405 5403 5401 5400 5400 5400 5400 5400 5401 5402 5402 5404 5405 5409 5412 5417 5421 5427 5433 5440 5447 5456 5465 5474 5483 5492 5501 5509 5516 5523 5530 5535
5411 5406 5400 5401 5409 5405 5408 5410 5409 5405 5401 5398 5396 5394 5394 5393 5392 5393 5392 5392 5392 5393 5393 5395 5397 5400 5404 5408 5413 5417 5423 5429 5436 5444 5454 5463 5472 5481 5489 5497 5504 5512 5519 5524